Location: Street
(51.1247°N, 2.7429°W)
Time: 10:29:07
(UTC+01:00)

STRAND 1 - Pass Details

Date: 17 April 2024
Orbit: 766 x 777 km, 98.4° (Epoch: 29 May)

Event Time Altitude Azimuth Distance (km) Brightness Sun altitude
Rises 20:38:01 0° 10° (N) 3,249 ? -4.8°
Reaches altitude 10° 20:40:25 10° 4° (N) 2,319 ? -5.1°
Maximum altitude 20:45:12 42° 294° (WNW) 1,085 ? -5.8°
Drops below altitude 10° 20:49:58 10° 225° (SW) 2,309 ? -6.5°
Sets 20:52:22 0° 218° (SW) 3,233 ? -6.8°
